[[{"header":{"parameterUnit":"m.s-1","parameterCategory":1,"la1":30.2991,"la2":30.254,"lo1":-89.0895,"lo2":-89.0444,"dy":0.0017,"dx":0.0017,"nx":28,"ny":28,"refTime":"2024-02-02T09:00:00:Z","depth":0,"parameterNumber":2,"parameterNumberName":"U-component_of_WINDS"},"data":[0,0,0,0,0,0,0,0,0,0,0,0,0,0,0,0,0,0,0,0,0,0,0,0,0,0,0,0,0,0,0,0,0,0,0,0,0,0,0,0,0,0,0,0,0,0,0,0,0,0,0,0,0,0,0,0,0,0,-0.2912,-0.2911,0,-0.2846,-0.2845,-0.2845,-0.2794,-0.2793,-0.2793,-0.2792,-0.2723,-0.2722,-0.2721,0,0,0,0,0,0,0,0,0,0,0,0,0,-0.2993,-0.2991,-0.2912,-0.2911,-0.291,-0.2846,-0.2845,-0.2844,-0.2794,-0.2793,-0.2793,-0.2792,-0.2724,-0.2722,-0.2721,0,0,0,0,0,0,0,0,0,0,0,0,0,-0.2945,-0.2991,-0.2912,-0.2877,-0.2873,-0.2846,-0.2845,-0.2844,-0.2794,-0.2793,-0.2792,-0.2792,-0.2724,-0.2722,-0.272,-0.2722,0,0,-0.2714,-0.2713,0,0,0,0,0,0,0,0,-0.2948,-0.2942,-0.2883,-0.288,-0.2875,-0.2827,-0.2848,-0.2803,-0.2794,-0.2824,-0.2792,-0.2791,-0.2758,-0.2754,-0.2743,-0.2719,-0.2716,-0.2714,-0.2712,-0.2712,-0.2711,0,0,0,0,0,0,0,-0.2951,-0.2945,-0.2886,-0.2882,-0.2878,-0.2865,-0.2857,-0.284,-0.2796,-0.2821,-0.2818,-0.2811,-0.2756,-0.2745,-0.2741,-0.2715,-0.2714,-0.2712,-0.2711,-0.271,-0.269,-0.269,0,0,0,0,0,0,-0.296,-0.2948,-0.2888,-0.2884,-0.2911,-0.2864,-0.2855,-0.2843,-0.2796,-0.2788,-0.2811,-0.2808,-0.2749,-0.2743,-0.2738,-0.2737,-0.2712,-0.271,-0.2708,-0.2689,-0.269,-0.2691,0,0,0,0,0,0,-0.2962,-0.2955,-0.289,-0.2915,-0.2906,-0.2863,-0.285,-0.2843,-0.2831,-0.2788,-0.278,-0.2808,-0.2748,-0.2741,-0.2727,-0.2734,-0.2709,-0.2707,-0.2688,-0.2689,-0.269,-0.2736,0,0,0,0,0,0,-0.2965,-0.2956,-0.2957,-0.2915,-0.2905,-0.288,-0.2851,-0.2842,-0.2828,-0.2824,-0.2783,-0.2776,-0.2747,-0.273,-0.2725,-0.2731,-0.2705,-0.2687,-0.2689,-0.269,-0.2733,-0.2738,-0.2742,0,0,0,0,0,-0.2968,-0.2971,-0.2957,-0.295,-0.2904,-0.2881,-0.2875,-0.2842,-0.2829,-0.2829,-0.2801,-0.2777,-0.2735,-0.2729,-0.2722,-0.2728,-0.2687,-0.2688,-0.269,-0.2731,-0.2737,-0.2742,0,0,0,0,0,0,-0.3014,-0.2965,-0.2949,-0.2939,-0.2915,-0.2872,-0.2871,-0.2849,-0.2828,-0.2824,-0.2784,-0.2776,-0.2766,-0.2745,-0.274,-0.2728,-0.2707,-0.2708,-0.2741,-0.2746,-0.2751,-0.2756,-0.2704,0,0,0,0,0,-0.3023,-0.3009,-0.2967,-0.2963,-0.2951,-0.2914,-0.2902,-0.2879,-0.2852,-0.2841,-0.2813,-0.2787,-0.2768,-0.2756,-0.2736,-0.2731,-0.2721,-0.2731,-0.2736,-0.274,-0.274,-0.2736,-0.274,-0.2696,-0.2696,-0.2696,0,0,-0.3041,-0.3013,-0.3006,-0.2971,-0.2949,-0.2935,-0.2905,-0.2891,-0.288,-0.2839,-0.2824,-0.2803,-0.2771,-0.2761,-0.2756,-0.2744,-0.2751,-0.2742,-0.2745,-0.2743,-0.2738,-0.2743,-0.2746,-0.2697,-0.2697,-0.2697,0,0,-0.3068,-0.3045,-0.3039,-0.3019,-0.2987,-0.2962,-0.2961,-0.2922,-0.2906,-0.2891,-0.286,-0.2847,-0.2814,-0.2793,-0.2779,-0.2799,-0.2776,-0.2794,-0.2817,-0.2814,-0.2817,-0.282,-0.2827,-0.2831,-0.2795,-0.2795,-0.2795,0,-0.3095,-0.3072,-0.3039,-0.3027,-0.3013,-0.2976,-0.297,-0.2951,-0.2914,-0.2905,-0.2893,-0.2853,-0.2829,-0.2814,-0.282,-0.2809,-0.2806,-0.2798,-0.282,-0.2822,-0.2824,-0.2831,-0.2834,-0.2797,-0.2797,-0.2797,-0.2796,0,-0.3107,-0.3092,-0.3091,-0.3058,-0.3043,-0.3034,-0.2999,-0.2989,-0.2968,-0.2944,-0.2929,-0.29,-0.2874,-0.2869,-0.2848,-0.2851,-0.2845,-0.2827,-0.2806,-0.2831,-0.2837,-0.2839,-0.2801,-0.28,-0.2799,-0.2798,0,0,-0.3159,-0.3108,-0.3108,-0.3093,-0.3056,-0.3044,-0.3034,-0.3009,-0.3,-0.2977,-0.2967,-0.2942,-0.2925,-0.2908,-0.2885,-0.2882,-0.2901,-0.2864,-0.2863,-0.2872,-0.2903,-0.2917,-0.292,-0.2886,-0.2886,-0.2886,-0.2906,0,-0.3179,-0.3159,-0.313,-0.3119,-0.3106,-0.3071,-0.3063,-0.3039,-0.3017,-0.3002,-0.2978,-0.2961,-0.294,-0.293,-0.2926,-0.2899,-0.2906,-0.2898,-0.2876,-0.2876,-0.2884,-0.2923,-0.2937,-0.2957,-0.2908,-0.2908,-0.2908,0,-0.32,-0.3179,-0.3168,-0.3133,-0.3126,-0.3119,-0.3094,-0.308,-0.3053,-0.3037,-0.302,-0.2995,-0.2982,-0.2964,-0.2946,-0.2941,-0.2931,-0.2917,-0.2917,-0.2913,-0.2893,-0.292,-0.2962,-0.2965,-0.2911,-0.2911,-0.2911,0,-0.3239,-0.3208,-0.3198,-0.3185,-0.3144,-0.314,-0.3123,-0.3095,-0.3082,-0.3061,-0.3052,-0.303,-0.3017,-0.3,-0.297,-0.2959,-0.2956,-0.2934,-0.2942,-0.2943,-0.2942,-0.2942,-0.2983,-0.2937,-0.2936,-0.2936,-0.2936,0,-0.3264,-0.3259,-0.3215,-0.3208,-0.3201,-0.3167,-0.3161,-0.3141,-0.3117,-0.3105,-0.3074,-0.3065,-0.3025,-0.3011,-0.2987,-0.2976,-0.2971,-0.2958,-0.2952,-0.296,-0.2962,-0.2952,-0.295,-0.2937,-0.2937,-0.2937,-0.2937,0,-0.3306,-0.3277,-0.3263,-0.3226,-0.3216,-0.3213,-0.3181,-0.3173,-0.315,-0.3137,-0.3132,-0.3096,-0.3077,-0.3046,-0.3018,-0.3002,-0.2996,-0.2985,-0.3005,-0.3001,-0.3011,-0.301,-0.3046,-0.3049,-0.3001,-0.3002,-0.3002,0,-0.3324,-0.3319,-0.3282,-0.3273,-0.3257,-0.3242,-0.3229,-0.3196,-0.3184,-0.3154,-0.315,-0.313,-0.3111,-0.3084,-0.3055,-0.3034,-0.3022,-0.3036,-0.3019,-0.3028,-0.3022,-0.3023,-0.3022,-0.304,-0.3041,-0.3041,-0.3042,0,-0.3359,-0.3345,-0.3328,-0.3307,-0.3293,-0.3274,-0.3254,-0.3248,-0.321,-0.3198,-0.318,-0.3166,-0.3138,-0.3118,-0.3093,-0.3075,-0.3052,-0.3048,-0.3048,-0.3057,-0.3069,-0.3063,-0.3016,-0.3047,-0.3046,-0.3046,-0.3046,-0.3045,-0.3389,-0.3384,-0.3357,-0.3339,-0.3321,-0.3303,-0.3294,-0.3271,-0.3255,-0.3231,-0.3212,-0.3195,-0.3169,-0.3133,-0.3117,-0.3103,-0.3092,-0.3093,-0.3093,-0.3094,-0.3097,-0.3072,-0.3098,-0.3098,-0.3098,-0.3097,-0.3097,0,-0.3422,-0.3404,-0.3388,-0.3361,-0.3348,-0.3329,-0.3306,-0.3296,-0.3281,-0.3259,-0.3242,-0.3221,-0.3202,-0.3173,-0.3151,-0.3146,-0.3135,-0.3141,-0.3141,-0.3137,-0.3108,-0.3109,-0.315,-0.315,-0.315,-0.315,-0.315,-0.315,-0.3438,-0.3428,-0.3411,-0.3391,-0.3372,-0.3356,-0.3344,-0.3328,-0.331,-0.3288,-0.3273,-0.3254,-0.3229,-0.3206,-0.3187,-0.3179,-0.3173,-0.3182,-0.3171,-0.3144,-0.3139,-0.3134,-0.3136,-0.3181,-0.3181,-0.3201,-0.3201,-0.3202]},{"header":{"parameterUnit":"m.s-1","parameterCategory":1,"la1":30.2991,"la2":30.254,"lo1":-89.0895,"lo2":-89.0444,"dy":0.0017,"dx":0.0017,"nx":28,"ny":28,"refTime":"2024-02-02T09:00:00:Z","depth":0,"parameterNumber":3,"parameterNumberName":"V-component_of_WINDS"},"data":[0,0,0,0,0,0,0,0,0,0,0,0,0,0,0,0,0,0,0,0,0,0,0,0,0,0,0,0,0,0,0,0,0,0,0,0,0,0,0,0,0,0,0,0,0,0,0,0,0,0,0,0,0,0,0,0,0,0,1.2787,1.2786,0,1.2762,1.2761,1.2761,1.2798,1.2799,1.28,1.2802,1.2772,1.277,1.2768,0,0,0,0,0,0,0,0,0,0,0,0,0,1.2862,1.2861,1.2787,1.2786,1.2786,1.2762,1.2761,1.2761,1.2797,1.2799,1.2801,1.2802,1.2772,1.277,1.2767,0,0,0,0,0,0,0,0,0,0,0,0,0,1.2832,1.286,1.2787,1.2801,1.2802,1.2762,1.2761,1.2761,1.2797,1.2799,1.2801,1.2803,1.2773,1.277,1.2767,1.2709,0,0,1.2758,1.2757,0,0,0,0,0,0,0,0,1.2834,1.283,1.2799,1.28,1.2801,1.2785,1.2777,1.2743,1.2797,1.2799,1.2802,1.2804,1.2774,1.2771,1.2762,1.2708,1.2707,1.2758,1.2756,1.2755,1.2754,0,0,0,0,0,0,0,1.2836,1.2831,1.2777,1.2799,1.28,1.2808,1.2806,1.2771,1.2776,1.2799,1.2802,1.2798,1.2775,1.2765,1.2762,1.2706,1.2758,1.2755,1.2753,1.2752,1.2603,1.2601,0,0,0,0,0,0,1.2837,1.2832,1.2777,1.2776,1.2823,1.2805,1.2803,1.2788,1.2776,1.2776,1.2797,1.28,1.2769,1.2765,1.2761,1.2692,1.2755,1.2752,1.275,1.2605,1.2603,1.2601,0,0,0,0,0,0,1.2838,1.2832,1.2778,1.2805,1.2799,1.2802,1.2785,1.2787,1.2777,1.2775,1.2775,1.2786,1.277,1.2765,1.2722,1.2691,1.275,1.2748,1.2608,1.2605,1.2602,1.2554,0,0,0,0,0,0,1.284,1.2832,1.2811,1.2804,1.2797,1.2741,1.2783,1.2785,1.2772,1.2776,1.2764,1.2764,1.2772,1.2726,1.2719,1.2688,1.2745,1.2611,1.2606,1.2603,1.2558,1.255,1.2542,0,0,0,0,0,1.2843,1.2798,1.281,1.2803,1.2771,1.2739,1.2735,1.2746,1.2769,1.2747,1.2746,1.2765,1.2696,1.2722,1.2714,1.2682,1.2613,1.2608,1.2603,1.2562,1.2551,1.2542,0,0,0,0,0,0,1.2799,1.2797,1.281,1.2762,1.2751,1.2746,1.2718,1.2734,1.2715,1.2719,1.2732,1.2729,1.2683,1.2678,1.2707,1.2625,1.2658,1.2652,1.263,1.262,1.2612,1.2613,1.2743,0,0,0,0,0,1.2784,1.276,1.2759,1.2716,1.271,1.2715,1.2702,1.2711,1.2699,1.2694,1.269,1.2677,1.2653,1.2636,1.2613,1.2558,1.2556,1.2532,1.2524,1.2517,1.2511,1.2481,1.247,1.2585,1.2585,1.2585,0,0,1.2752,1.2748,1.2731,1.2707,1.2699,1.2673,1.2711,1.2681,1.2661,1.2689,1.2649,1.2645,1.2631,1.2582,1.256,1.2577,1.2479,1.2511,1.2506,1.2503,1.2475,1.2464,1.2454,1.2581,1.2582,1.2583,0,0,1.268,1.2675,1.2638,1.2631,1.2619,1.2623,1.2615,1.2607,1.2607,1.2567,1.2587,1.2563,1.2521,1.251,1.2499,1.2424,1.244,1.2416,1.2373,1.2343,1.2334,1.2326,1.2298,1.2288,1.241,1.241,1.241,0,1.2641,1.2603,1.2617,1.2586,1.2574,1.2601,1.2563,1.2554,1.2536,1.2526,1.2546,1.2493,1.2486,1.2434,1.2416,1.2407,1.2396,1.2417,1.2335,1.2327,1.232,1.2293,1.2283,1.2407,1.2407,1.2408,1.2408,0,1.2555,1.2529,1.25,1.2483,1.2468,1.2434,1.2442,1.2425,1.2436,1.2437,1.2396,1.2388,1.2364,1.2353,1.2362,1.2302,1.2313,1.2333,1.2366,1.2306,1.2281,1.2271,1.2403,1.2404,1.2405,1.2406,0,0,1.2453,1.2446,1.2435,1.2427,1.2417,1.2396,1.2363,1.2341,1.2326,1.2312,1.2284,1.2248,1.2267,1.2254,1.2263,1.2237,1.2177,1.2261,1.2261,1.2245,1.2109,1.2093,1.2081,1.2188,1.2186,1.2185,1.211,0,1.2381,1.2325,1.2337,1.2281,1.2256,1.2281,1.2252,1.2242,1.2243,1.222,1.2221,1.2195,1.2223,1.2215,1.2191,1.2189,1.215,1.2195,1.216,1.2159,1.2162,1.2068,1.2051,1.198,1.21,1.2099,1.2098,0,1.2288,1.2273,1.2215,1.2209,1.2199,1.2173,1.2154,1.2133,1.2122,1.2124,1.211,1.2124,1.209,1.2125,1.2077,1.2108,1.2094,1.2091,1.2089,1.2085,1.2123,1.206,1.1958,1.1947,1.2083,1.2084,1.2085,0,1.2218,1.2183,1.2144,1.2137,1.2129,1.211,1.2106,1.2097,1.2083,1.2066,1.2057,1.2036,1.2023,1.2006,1.2013,1.2038,1.1964,1.2,1.1963,1.1963,1.1945,1.1946,1.1838,1.1938,1.1939,1.1939,1.1939,0,1.2135,1.2099,1.2112,1.2088,1.2047,1.2061,1.202,1.2019,1.2011,1.1986,1.2006,1.1982,1.1993,1.197,1.1975,1.1934,1.1928,1.1928,1.193,1.1926,1.1926,1.1916,1.192,1.1936,1.1937,1.1937,1.1938,0,1.205,1.2058,1.2016,1.2013,1.2012,1.1982,1.1978,1.1955,1.1958,1.1926,1.1919,1.1923,1.1896,1.1902,1.1872,1.1875,1.1824,1.1832,1.1828,1.1829,1.1792,1.1795,1.1673,1.1658,1.1769,1.1768,1.1767,0,1.1996,1.1968,1.1963,1.1948,1.1943,1.1919,1.1905,1.1918,1.1903,1.1888,1.1866,1.1842,1.1822,1.1778,1.1777,1.1754,1.1761,1.172,1.1758,1.1754,1.1759,1.176,1.1757,1.1712,1.1711,1.171,1.1709,0,1.1898,1.1904,1.1884,1.1866,1.1849,1.1835,1.1823,1.1809,1.1821,1.1803,1.1776,1.1761,1.1732,1.1706,1.1685,1.1679,1.1695,1.1697,1.1688,1.1682,1.1681,1.168,1.1806,1.17,1.1701,1.1701,1.1702,1.1702,1.1826,1.1803,1.1795,1.1772,1.1765,1.1753,1.1731,1.1732,1.171,1.1688,1.1697,1.1666,1.1655,1.1629,1.1621,1.1596,1.1611,1.1597,1.1594,1.159,1.1585,1.1686,1.1592,1.1593,1.1593,1.1593,1.1593,0,1.1729,1.1726,1.1705,1.1687,1.1669,1.1688,1.1675,1.1659,1.1632,1.1621,1.1603,1.1572,1.1547,1.1545,1.1522,1.1503,1.1509,1.1496,1.1497,1.1495,1.1573,1.1583,1.1491,1.1491,1.1491,1.1491,1.1491,1.1491,1.1676,1.1637,1.1642,1.16,1.1596,1.1568,1.1559,1.1547,1.1539,1.1504,1.1485,1.1484,1.1476,1.1453,1.1431,1.1431,1.1421,1.1404,1.1407,1.1479,1.1489,1.1499,1.1509,1.1402,1.1402,1.1331,1.133,1.133]}]]